STARLINK-1484, 45756

Orbit data source: Space-Track

STARLINK-1484, 45756 is a payload satellite owned by SpaceX/Seattle (US) in LEO that was launched on Sat, 13 Jun 2020 UTC via an FALCON 9 launch vehicle from the Air Force Eastern Test Range (AFETR). Payload-class satellites include a variety of spacecraft equipped with specific instruments for various scientific and technological missions. These include communications satellites like Starlink; space stations such as the ISS; scientific satellites like the Hubble; Earth observation satellites from companies like Planet Labs, Umbra, and HawkEye 360; GPS; miniature CubeSats for education and research; and military/defense satellites.

Loading next visibility...
Identifier
45756, 2020-038AC
Orbit
LEO
Country
Flag of USUS
Related business
Manufacturer
SpaceX/Seattle
Mission
Partially operational Commercial Communications
Bus & Motor
STARLINK, Unknown motor
Mass
260 kg wet, ~248 kg dry
Launch date (UTC)
2020-06-13 (5 years ago)
Launch vehicle
FALCON 9
Launch site
Air Force Eastern Test Range (AFETR)
Object type
Payload
Rocket body
Debris
Shape & HBR
Box + 1 Pan, 10.1 m
Radar Cross Section
13.562 m², Large (>1 m²)

Expand to show TLE details & history
Last TLE update: 4 hours ago

TLE from 4 hours ago
0 STARLINK-1484
1 45756U 20038AC  25291.31447681  .00065946  00000-0  87481-3 0  9994
2 45756  53.0174  46.4165 0001591 206.8633 153.2295 15.57656460296266
Epoch: 2025-10-18T07:32Z
TLE epoch observation values (Epoch: 2025-10-18T07:32:50.796Z)
Latitude
-0.00007°
Longitude
-93.84247°
Altitude
396.299 km
Speed
7.673 km/s
True Right ascension
03h 05m 39s
True Declination
0° 00' 00"
Sunlit
Object was in full shadow at epoch
Visualization orbit readout
Latitude
Unknown
Longitude
Unknown
Altitude
Unknown
Speed
Unknown
Apparent Right ascension
Unknown
Apparent Declination
Unknown
Sunlit
N/A
Visualization observer readout
Local Sidereal Time
06:19:39
Azimuth
Unknown
Elevation
Unknown
Doppler factor
Unknown
Orbital elements
Apogee altitude
395.802 km
Perigee altitude
393.647 km
Semi-major axis
6,772.861 km
Eccentricity
0.00016
Inclination
53.0174°
RAAN
46.4165°
Arg. of periapsis
206.8633°
True anomaly
153.23771°
Mean anomaly
153.2295°
Eccentric anomaly
153.23361°
Mean motion
3.8939 °/min
Orbital period
92.45 mins
BSTAR
0.00087481
Loading maneuver chart data...
Computing Atmospheric mass density...

Documentation

Showing up to 5 results
|